Location: Ernez
(36.4595°N, 29.8755°E)
Time: 07:55:03
(UTC+00:00)

Cosmos 540 Rocket - Pass Details

Date: 13 November 2025
Orbit: 735 x 748 km, 74.1° (Epoch: 04 December)

Event Time Altitude Azimuth Distance (km) Brightness Sun altitude
Rises 17:04:13 0° 339° (NNW) 3,193 6.9 -26.4°
Reaches altitude 10° 17:06:35 10° 337° (NNW) 2,264 6.1 -26.9°
Maximum altitude 17:11:40 68° 255° (WSW) 800 3.6 -27.9°
Enters shadow 17:12:37 55° 201° (SSW) 892 3.8 -28.1°
